Wind_Speed
26 27 27 27 27 27 27 27 27 28 30 29 27 27 26 25 25 24 23 22 20 21 22 23 25 25 24 24 26 26 26 26 26 27 29 28 27 24 23 25 27 28 28 26 26 26 24 25 25 24 25 27 28 28 28 32 34 34 34 31 27 25 25 23 22 23 23 23 22 19 17 19 20 18 19 21 22 23 24 23 21 20 20 21 22 22 24
29 29 29 29 29 28 27 27 26 26 27 28 27 26 25 25 25 24 24 24 22 21 20 20 22 23 23 24 26 27 27 28 28 29 30 30 28 25 22 20 21 25 29 29 29 28 28 28 27 27 27 26 25 26 27 30 32 33 33 32 28 25 25 25 25 24 25 24 23 19 18 20 23 22 24 27 27 26 27 28 28 28 28 28 28 28 29
31 31 32 31 31 31 29 28 27 25 25 26 26 26 25 25 25 25 25 25 24 23 21 20 21 22 23 24 27 28 30 30 30 32 32 31 32 31 27 22 22 26 30 30 30 30 31 29 27 28 27 23 22 24 24 26 28 30 31 30 28 26 26 27 27 27 26 26 25 24 23 25 26 27 28 30 30 29 29 28 27 28 30 30 30 31 30
31 31 31 32 32 32 32 31 29 27 25 25 24 25 25 26 27 27 27 26 25 25 24 23 22 22 22 24 26 28 30 30 30 31 30 30 32 34 34 31 29 30 31 31 29 29 31 31 30 29 23 18 22 27 29 28 28 28 30 30 28 27 26 26 27 28 28 28 28 28 27 28 29 29 30 31 32 33 31 29 28 28 29 29 29 29 29
28 29 29 30 30 30 30 31 30 29 27 25 24 23 23 25 26 27 27 26 25 26 26 26 26 24 24 26 26 27 28 28 28 29 30 30 30 31 35 35 32 30 31 31 30 30 33 33 33 32 27 19 21 28 34 37 36 35 35 34 33 31 30 30 31 32 32 31 31 30 29 29 30 30 31 32 34 34 34 34 33 32 32 31 30 31 32
26 26 27 27 28 27 27 27 28 28 28 27 25 23 23 23 24 24 25 25 25 26 26 27 28 27 26 27 26 27 29 28 27 27 29 31 32 32 35 37 35 34 34 33 31 30 32 34 34 33 31 28 27 30 36 42 45 43 39 37 37 35 34 34 34 35 35 34 34 34 33 33 33 34 35 35 36 36 36 37 37 36 37 37 36 36 38
24 24 25 26 26 26 26 24 23 24 25 26 26 24 23 23 22 23 24 25 25 25 25 26 26 26 24 24 23 25 27 28 28 28 29 31 33 34 35 37 38 40 41 39 36 35 36 37 36 33 32 33 34 35 38 42 44 42 38 37 37 36 36 36 36 36 37 36 36 36 36 36 37 38 38 38 38 38 39 40 41 41 42 42 42 42 43
23 24 24 25 25 25 25 24 21 19 20 22 23 24 23 23 22 22 23 25 26 25 26 26 26 25 25 25 25 26 26 27 28 29 30 32 33 33 34 35 36 39 40 39 39 41 42 41 40 37 34 34 36 36 37 40 43 41 39 39 38 37 36 37 37 36 36 36 36 37 38 40 41 41 41 41 41 42 42 43 44 45 45 46 47 47 47
23 24 24 24 24 24 24 23 21 18 15 15 18 20 21 22 22 21 22 24 27 28 28 27 27 28 29 30 28 28 29 29 29 30 32 35 36 35 36 37 37 36 34 33 35 40 42 42 42 41 37 36 38 38 39 41 43 43 42 43 43 41 39 39 38 37 37 37 38 39 41 42 43 44 44 43 43 43 43 44 46 47 48 48 48 48 50
24 24 24 24 23 23 22 21 20 18 14 11 11 14 17 20 21 21 23 24 27 29 29 29 30 31 32 32 31 30 32 32 31 31 35 39 40 38 38 38 37 36 33 33 34 37 38 39 39 39 38 38 39 40 41 42 42 43 44 44 45 45 45 44 43 43 43 43 43 43 43 43 42 43 43 42 42 43 43 45 46 47 48 48 48 49 50
24 24 24 23 23 22 22 21 19 17 15 11 8 8 11 15 17 20 23 24 25 27 28 29 31 31 31 33 34 35 35 35 34 34 36 38 39 38 38 37 36 35 35 35 35 35 36 36 36 37 38 39 39 41 43 43 43 43 45 46 46 46 47 47 47 47 47 47 48 47 47 46 44 43 42 42 43 44 44 45 46 46 45 46 48 49 49
25 24 24 23 22 22 21 21 19 17 15 12 9 7 7 10 13 16 20 21 22 24 25 26 27 28 29 32 33 35 36 36 36 37 36 37 38 38 38 37 36 35 35 34 35 36 37 37 37 38 39 40 39 40 42 43 42 42 44 44 45 46 46 45 45 46 47 48 49 49 49 49 47 47 46 46 47 48 46 45 46 46 44 44 46 48 48
26 25 24 23 22 21 20 20 20 19 16 14 12 9 7 7 9 12 15 18 19 21 23 23 24 25 26 29 31 32 34 35 36 37 37 38 39 40 42 41 39 38 36 34 34 35 37 40 40 40 40 40 40 40 42 42 42 42 42 43 43 44 44 42 42 45 47 48 49 49 49 48 47 48 48 47 48 49 48 48 49 48 47 47 48 49 49
27 26 25 23 22 21 20 20 19 19 18 16 14 11 9 7 7 9 11 14 16 19 21 23 24 24 26 28 30 31 32 33 34 35 36 37 38 40 43 43 42 41 39 37 37 37 39 40 42 42 42 41 41 41 42 42 42 42 42 42 42 43 43 42 43 46 47 47 47 48 47 47 47 47 47 46 46 47 48 48 49 50 49 50 49 49 49
27 27 26 25 23 21 20 20 19 18 17 16 14 13 11 10 9 9 9 11 12 14 18 20 22 23 25 27 29 29 30 31 32 33 34 35 36 38 41 42 42 41 40 40 41 42 42 42 43 44 43 42 42 42 42 41 41 42 42 42 42 42 43 44 45 46 47 47 46 47 47 47 46 45 45 44 43 44 45 46 47 49 49 50 49 48 49
26 27 27 26 25 23 21 20 20 19 18 16 14 13 11 11 11 10 10 10 10 11 13 16 18 20 22 25 27 29 30 31 32 33 34 35 35 37 38 38 39 39 38 38 39 40 41 42 43 44 44 44 43 43 43 43 42 43 43 44 44 43 45 46 46 47 48 47 47 47 47 46 45 44 43 42 41 43 44 45 46 47 48 47 47 46 46
26 26 26 27 26 24 23 21 20 20 19 16 14 12 11 11 11 11 10 10 9 10 11 13 14 16 18 20 23 25 27 29 30 32 35 36 37 37 37 37 37 36 36 36 36 36 38 39 40 41 41 42 42 43 44 44 44 44 44 44 44 43 44 45 45 46 46 46 45 45 46 46 45 43 42 42 42 42 43 44 45 46 47 46 46 45 43
25 26 26 27 27 26 24 23 21 20 18 16 14 13 12 12 11 11 10 9 9 10 11 11 13 14 16 17 19 21 23 25 26 29 32 34 35 35 35 35 36 36 36 36 35 35 36 36 36 36 36 36 38 39 40 40 40 40 40 41 41 40 39 40 41 41 41 41 42 42 43 44 43 41 41 42 42 41 41 44 46 46 47 47 46 45 44
24 25 26 26 26 26 25 24 22 20 17 16 15 15 14 14 13 12 11 10 9 9 10 11 12 14 15 16 19 20 21 23 25 27 28 29 30 30 30 32 34 35 36 36 35 35 35 35 35 35 33 34 35 35 34 34 35 35 35 36 36 35 35 36 36 37 37 38 39 39 40 40 40 39 41 41 41 41 42 44 44 45 46 46 47 47 48
23 24 24 25 25 25 25 24 23 21 18 16 16 16 16 16 14 12 11 10 9 9 9 9 10 12 14 15 18 19 20 22 24 25 26 27 28 27 28 29 30 30 30 29 30 31 32 33 35 35 34 34 34 33 32 31 31 32 33 34 34 34 35 35 36 37 37 37 37 37 38 39 40 40 41 42 42 43 45 45 46 47 48 48 48 49 51
23 23 23 24 24 25 25 24 24 23 21 18 16 16 17 16 14 12 11 11 10 10 9 9 10 12 14 15 16 17 19 20 21 22 24 25 26 26 26 26 25 25 24 24 25 26 28 30 31 31 31 32 33 33 32 32 32 32 33 33 35 36 36 37 38 39 39 39 39 39 39 40 41 41 42 43 45 46 47 48 49 50 51 50 49 50 50
24 23 23 23 23 24 24 24 24 23 23 21 18 17 16 16 15 13 12 13 12 10 9 9 10 12 13 14 14 14 15 16 17 19 20 22 22 22 22 21 21 21 20 21 23 23 23 25 24 23 25 27 27 28 30 31 32 33 34 34 35 36 37 38 39 41 41 41 41 42 41 42 43 44 44 46 48 49 51 51 51 51 51 50 50 50 50
24 24 24 23 23 23 24 24 24 23 23 22 21 19 18 17 16 14 14 14 13 12 11 10 10 12 13 14 13 12 12 12 12 13 15 17 17 16 17 17 18 18 18 19 20 20 20 21 21 20 22 24 24 24 25 26 28 30 32 33 35 36 37 37 38 41 42 42 43 44 43 44 46 47 48 49 50 51 52 53 53 52 52 52 52 51 51
24 24 24 24 24 23 23 23 23 23 23 22 22 21 20 19 18 16 15 14 14 13 12 11 11 12 13 13 13 12 11 10 9 9 11 12 11 11 13 15 15 15 16 17 18 19 19 19 19 20 22 23 22 22 23 24 25 26 27 30 32 32 32 33 35 38 38 40 43 43 41 42 43 45 46 46 46 47 49 50 51 51 51 52 52 51 51
23 23 24 24 25 24 24 23 23 23 23 22 22 21 20 20 19 18 16 15 14 13 13 13 12 12 12 13 13 12 12 10 9 8 8 8 7 8 10 11 12 12 12 14 15 16 16 17 18 19 20 20 20 21 22 23 24 24 25 28 30 29 29 31 32 33 34 37 39 38 37 39 40 41 41 42 42 44 46 48 49 50 50 50 50 50 50
22 22 23 23 24 24 24 24 23 23 23 22 22 21 21 20 19 19 18 17 15 14 13 13 12 12 12 12 12 12 12 11 10 9 8 7 6 6 6 7 8 9 9 11 12 13 13 14 15 16 17 17 17 19 21 22 22 23 24 26 27 28 29 29 29 30 32 34 35 35 35 37 38 39 40 41 42 44 46 47 48 50 50 51 51 51 52
22 23 23 23 23 24 24 24 24 24 23 22 22 21 20 20 19 19 19 18 17 16 15 14 13 12 12 12 12 12 11 11 10 10 9 8 7 7 6 6 6 6 7 8 9 10 11 12 13 13 13 13 14 17 20 21 21 21 23 24 25 25 27 27 28 29 31 32 33 34 35 37 38 39 40 42 43 44 45 46 47 48 49 50 50 51 52
22 23 23 23 23 23 23 23 23 23 23 23 22 21 20 20 20 19 19 18 17 17 16 15 14 14 13 13 12 12 12 12 11 10 10 9 8 8 8 7 6 7 7 8 8 9 11 12 12 11 12 13 16 18 19 20 21 22 24 24 24 25 27 28 28 30 32 34 35 35 36 37 38 39 40 41 42 43 43 44 44 45 45 45 45 46 48
22 23 24 24 24 24 24 24 23 23 23 23 22 22 21 21 21 20 19 18 18 17 17 16 15 15 15 14 13 12 12 12 11 11 11 10 10 9 9 9 9 9 9 10 10 11 12 13 13 13 13 15 18 19 19 20 22 25 26 25 24 25 26 27 28 30 32 33 34 35 35 37 37 38 39 40 41 41 41 41 41 42 41 41 42 43 44
22 23 24 24 25 25 25 25 24 24 23 22 22 22 21 21 20 19 19 19 18 18 17 17 16 16 16 15 14 14 13 12 11 11 11 11 11 10 10 10 10 10 10 11 11 12 13 14 15 14 14 15 18 19 19 21 23 25 25 25 24 24 25 26 28 29 30 31 32 33 34 35 36 36 38 39 39 38 37 35 35 35 34 35 35 36 36
23 24 24 24 25 25 25 25 25 25 24 24 23 22 21 21 21 20 19 19 18 18 18 17 16 17 16 16 15 15 14 13 13 12 12 11 11 11 11 11 11 11 12 12 13 13 14 15 16 15 14 15 17 18 18 19 23 24 23 22 22 23 25 26 28 29 29 30 31 31 32 33 33 33 33 34 33 30 28 27 26 26 26 26 26 26 25
23 24 24 25 25 25 25 25 25 25 25 25 25 24 23 23 22 21 21 20 19 19 19 18 17 17 16 16 16 16 15 15 15 14 13 13 12 11 12 12 13 13 13 13 14 14 15 15 16 16 15 15 17 17 17 19 21 22 21 21 22 23 25 26 27 28 28 29 29 28 27 27 27 27 26 26 24 22 20 20 20 20 20 21 21 21 21
24 24 25 25 26 26 25 25 25 25 25 25 26 26 25 24 23 22 21 21 20 20 19 19 18 18 17 17 17 16 16 15 15 14 13 13 13 13 12 13 13 14 15 15 15 15 15 16 17 17 16 16 16 17 18 18 19 20 21 21 22 22 24 25 27 27 27 27 25 22 21 20 20 20 20 21 20 20 20 20 20 20 20 21 21 21 22
25 25 25 26 26 27 26 26 26 26 26 26 26 26 25 24 23 23 22 22 21 20 20 20 19 18 18 17 17 17 16 16 15 14 13 13 13 14 13 13 12 14 15 16 15 16 16 15 17 18 17 16 16 16 17 18 18 19 20 21 21 22 24 25 25 25 23 22 19 17 17 17 16 16 17 18 19 20 20 20 20 20 19 20 20 19 20
27 27 27 26 26 27 27 27 27 26 26 26 26 25 24 24 24 24 24 23 22 21 20 20 20 19 18 18 17 17 16 16 16 16 15 15 14 14 15 15 13 13 15 16 15 16 16 15 16 18 17 16 16 16 16 18 18 18 19 20 20 22 23 23 22 21 19 16 14 14 15 16 15 15 16 16 16 17 18 18 18 17 17 17 17 17 17
29 29 28 28 28 27 27 27 28 27 27 26 25 25 25 24 24 25 25 24 24 23 22 21 20 20 20 19 19 18 17 16 16 16 16 16 16 14 15 16 14 14 15 16 15 16 17 16 16 17 17 17 17 17 17 17 18 18 19 19 20 21 21 20 18 17 14 13 12 12 14 15 14 14 13 12 13 14 16 16 16 15 15 15 15 14 14
31 31 30 29 29 29 29 28 28 27 26 26 26 25 25 25 24 25 25 25 25 25 24 23 22 22 21 20 20 20 19 17 17 16 15 16 17 16 16 16 15 15 16 16 16 16 17 16 16 17 17 16 16 17 18 18 17 17 18 19 20 21 19 16 14 13 11 11 12 12 13 14 14 12 11 10 11 12 13 14 15 14 13 12 11 11 13
32 32 32 31 30 30 29 29 29 28 27 27 27 27 26 25 24 25 25 25 24 23 24 24 23 22 21 20 20 20 20 19 18 17 16 15 16 17 16 15 15 14 16 17 16 15 17 17 16 17 18 17 15 16 18 18 17 17 19 20 21 20 17 13 12 10 10 12 12 12 13 13 12 10 10 10 11 12 13 13 13 11 10 9 10 11 12
33 33 33 33 32 31 31 31 31 30 30 29 28 28 27 26 25 24 24 24 23 22 22 24 23 23 22 22 20 19 20 20 18 18 17 16 16 17 17 17 15 15 17 17 15 15 17 19 18 18 18 17 15 16 18 17 17 18 19 20 20 19 15 12 10 9 9 11 13 13 13 12 11 10 10 10 11 13 14 13 10 9 9 9 10 10 10
34 34 34 34 34 33 32 32 31 31 31 30 29 29 28 28 27 25 24 25 25 24 23 23 24 23 23 24 22 20 21 21 20 20 20 19 17 17 19 19 18 17 18 18 16 15 17 18 18 19 19 17 17 18 18 17 18 19 19 19 19 17 14 11 9 8 10 11 12 13 13 11 10 11 11 11 12 13 13 11 9 9 9 10 10 9 9
35 35 35 35 35 34 34 33 32 31 31 31 31 30 29 29 29 27 25 25 26 26 24 23 23 23 23 23 22 21 20 21 21 21 21 20 18 18 19 20 19 19 19 19 18 18 17 17 18 19 18 17 17 19 19 17 18 19 19 19 18 16 13 10 9 8 10 11 12 12 12 10 10 11 12 12 12 12 10 10 9 9 9 8 8 8 8
35 36 36 35 35 35 35 34 33 32 31 32 31 31 31 30 30 29 27 25 25 26 25 24 24 24 23 24 23 22 21 21 21 22 22 21 20 19 19 20 20 19 19 19 19 19 19 18 18 19 17 16 17 19 19 18 18 19 19 18 18 16 12 10 10 10 10 11 12 11 10 9 9 10 11 12 11 10 9 9 9 8 7 6 7 10 9
35 36 36 36 36 35 34 34 33 32 32 32 32 31 31 31 31 31 30 27 25 25 26 25 24 23 22 22 23 23 23 22 22 22 23 22 21 20 19 19 20 20 19 19 19 19 19 19 19 19 16 14 16 19 19 18 18 19 18 17 17 15 12 10 11 11 11 11 11 10 9 7 8 9 9 9 9 8 8 8 8 8 6 6 8 10 10
36 36 36 36 36 35 34 34 33 32 32 32 32 31 32 32 32 32 32 30 27 27 27 28 26 25 24 23 23 23 24 24 23 23 23 23 22 22 21 20 20 20 20 20 20 19 19 19 20 19 16 14 15 18 18 18 18 19 18 17 16 15 12 10 11 12 11 10 10 10 8 7 7 7 7 6 7 7 7 7 7 6 6 6 6 7 8
37 36 36 36 35 34 33 33 32 31 31 31 31 31 32 32 31 31 32 31 29 28 28 29 28 28 27 27 26 25 25 25 24 25 24 24 23 23 23 22 21 20 20 20 19 19 19 19 20 19 16 15 16 18 18 17 17 18 18 16 15 14 12 10 11 12 11 10 10 10 9 8 7 6 5 5 5 6 6 6 5 5 5 5 4 3 4
36 36 35 34 33 32 31 31 31 31 30 30 30 31 31 32 31 31 30 30 29 28 27 28 29 28 28 28 27 27 27 26 25 25 26 25 23 22 22 22 21 21 21 20 19 19 20 19 19 19 17 16 16 18 18 17 17 18 18 16 14 13 11 10 11 12 12 11 10 10 9 9 8 6 5 5 5 5 5 5 4 4 4 4 4 3 2
35 34 33 33 32 31 30 30 30 30 29 29 29 30 31 31 31 31 31 31 30 28 27 28 29 29 29 28 28 27 28 28 26 25 26 26 25 23 22 21 21 22 23 21 20 20 20 19 18 18 18 17 16 18 18 17 16 17 18 17 15 13 11 11 12 12 12 11 10 9 10 9 8 7 6 5 6 6 5 4 3 3 3 4 4 3 2
34 33 32 31 30 30 29 29 29 28 28 28 28 29 29 29 30 30 30 30 29 28 27 28 29 30 30 29 28 27 28 28 28 27 26 26 26 25 24 22 21 22 23 22 21 21 21 19 18 18 17 16 16 17 18 17 16 16 17 17 16 13 11 11 12 13 12 11 10 10 10 9 8 8 7 6 6 6 5 4 3 3 2 2 2 2 3
32 32 31 31 30 30 29 28 27 26 26 26 26 27 28 29 29 30 30 29 29 28 28 28 29 30 31 30 29 28 28 28 28 28 27 27 26 26 25 23 21 23 24 23 22 22 22 20 18 17 16 14 15 17 18 17 16 16 17 17 16 14 11 11 13 14 14 13 12 11 11 10 9 9 8 7 7 7 7 6 5 4 3 2 1 1 2
31 31 31 30 30 29 28 27 26 25 25 25 26 26 27 28 28 30 31 30 29 28 27 28 30 31 30 29 28 29 28 28 28 28 28 28 28 28 26 23 22 22 23 23 22 23 23 21 19 17 15 13 14 17 19 17 16 17 17 16 16 15 12 11 13 15 15 15 14 13 12 11 10 9 9 8 7 8 8 8 6 5 5 4 3 1 1
31 31 29 29 28 27 27 26 26 26 25 25 25 26 27 27 28 29 30 31 29 28 27 28 30 31 31 30 28 27 27 27 27 28 28 28 28 29 28 25 23 22 22 21 22 23 24 23 21 18 16 14 15 17 18 17 16 16 17 16 16 15 13 12 12 15 17 17 16 15 14 12 11 10 10 10 9 8 9 9 8 7 7 6 5 3 1
30 29 27 27 27 27 26 26 27 26 26 25 25 26 27 28 29 29 30 31 30 29 28 29 30 31 32 31 30 28 27 26 26 27 27 27 28 29 28 27 25 24 22 21 21 21 23 23 21 19 17 17 18 19 18 16 16 16 16 16 16 15 14 12 12 14 17 18 18 18 16 15 13 12 12 11 10 10 10 10 10 10 10 9 7 5 4
Wind_Direction
303 301 298 296 292 289 285 281 277 273 271 268 264 262 261 259 258 258 258 259 258 257 256 253 250 247 243 238 236 233 232 230 227 230 232 227 228 236 237 231 230 234 236 233 234 238 239 237 232 233 238 232 223 220 221 224 229 234 240 242 241 241 242 243 242 238 237 238 241 244 245 245 247 245 243 242 244 248 251 256 262 262 259 258 260 262 265
304 301 298 296 293 289 287 283 279 275 271 268 263 259 257 255 254 252 251 251 252 253 255 252 248 244 239 234 233 232 231 230 227 228 230 226 226 236 242 235 228 231 233 231 230 232 237 240 238 238 243 243 236 230 225 225 227 231 237 241 241 240 240 241 241 241 240 242 245 240 229 233 238 240 247 250 249 251 255 257 261 263 262 261 262 263 264
305 302 299 295 292 288 285 282 279 275 271 267 263 258 254 252 249 247 245 245 245 246 246 245 243 241 237 233 230 229 229 228 226 229 232 229 226 230 232 226 223 228 231 231 230 231 234 239 241 242 251 256 248 236 229 229 231 232 234 237 238 241 244 244 242 242 241 243 247 243 233 236 240 241 249 256 257 258 258 257 260 262 264 266 265 263 263
310 307 304 301 296 291 285 280 276 273 270 267 263 259 254 250 247 246 246 244 243 242 241 241 241 240 239 237 235 233 233 233 231 233 237 236 232 231 232 231 230 231 232 232 233 234 234 235 236 236 243 255 254 246 240 238 238 239 240 240 240 241 244 245 244 245 246 246 249 250 248 248 248 247 251 256 259 263 264 262 261 263 265 269 268 266 266
317 317 315 312 308 301 293 284 276 271 267 264 262 259 253 249 248 249 249 246 242 240 241 241 239 237 238 238 235 232 232 232 232 234 237 238 237 234 234 235 233 232 235 236 236 237 239 239 239 236 231 229 242 248 248 247 246 245 246 250 253 253 252 251 252 254 255 252 248 248 249 250 250 251 253 255 257 261 265 266 267 267 267 268 267 265 267
325 325 325 324 322 318 309 296 283 272 265 261 258 256 252 249 247 245 246 246 242 240 241 242 241 239 241 242 239 236 234 230 227 230 234 237 238 236 234 235 235 236 239 239 235 237 242 244 244 244 238 231 233 243 248 252 253 253 253 255 257 259 259 257 256 256 256 254 250 247 247 247 248 250 252 254 256 258 261 264 265 265 266 265 263 263 265
330 331 332 332 332 330 326 316 299 280 266 257 253 252 251 248 244 241 240 240 240 239 237 236 237 238 239 242 241 238 236 233 230 230 232 235 238 238 238 239 240 240 241 241 239 237 239 241 242 244 245 244 244 248 253 258 261 262 263 260 257 258 260 258 257 256 256 255 255 253 252 250 249 250 251 254 256 257 259 261 262 264 266 267 266 266 267
334 335 336 337 336 336 336 333 322 301 277 259 250 246 245 245 242 239 237 235 234 234 233 230 231 234 234 233 234 235 234 232 230 230 232 235 237 238 239 241 243 245 245 245 245 243 242 242 242 242 243 247 251 253 257 261 263 264 266 266 262 260 259 257 256 257 258 259 259 258 257 255 253 253 253 254 255 257 259 262 265 266 267 269 270 270 269
338 339 340 340 339 339 340 341 337 324 300 273 254 244 240 240 239 236 235 233 231 231 231 229 228 230 232 231 232 235 236 233 230 229 232 236 236 233 232 236 240 243 244 244 245 246 247 246 246 245 245 247 251 254 256 260 263 264 266 267 265 265 265 264 262 262 263 264 264 262 261 261 261 261 261 261 261 261 262 264 266 266 267 268 269 270 269
343 343 343 344 344 344 345 346 346 341 328 302 272 251 240 236 236 234 232 231 232 233 233 231 230 230 231 232 232 234 236 235 232 231 232 236 238 235 233 236 240 242 242 243 244 247 250 251 251 251 251 250 252 254 255 257 261 263 266 267 267 268 269 269 268 268 268 268 268 267 267 266 265 264 265 265 265 265 264 263 263 264 265 266 266 267 268
351 349 348 348 349 350 352 353 353 351 347 336 311 277 252 240 236 234 233 233 236 239 238 237 237 237 236 237 236 236 238 239 237 236 236 238 241 243 243 244 247 248 247 248 249 252 255 256 256 255 254 254 255 255 255 257 259 262 265 267 268 268 269 269 270 270 270 269 267 266 266 266 264 264 265 266 265 264 263 263 263 263 265 266 267 268 269
358 356 355 354 353 354 357 360 0 360 357 352 340 319 285 258 246 240 238 237 239 241 243 243 244 245 245 245 244 243 243 243 242 242 243 244 246 248 249 249 249 250 251 253 253 255 257 257 256 255 254 254 255 256 256 258 259 261 263 265 267 267 267 268 270 269 267 266 265 264 263 264 264 264 264 263 264 264 263 262 262 263 263 265 267 269 269
3 1 360 359 357 357 358 0 3 4 2 360 355 345 327 294 269 256 247 242 240 241 242 244 245 245 245 246 246 246 246 245 245 246 247 247 248 250 251 249 247 247 249 251 252 253 254 255 255 255 255 254 255 256 257 259 260 261 262 264 266 266 266 266 265 264 263 263 264 265 265 265 265 264 263 263 264 265 264 263 263 264 263 263 265 267 268
4 3 2 1 359 357 357 357 358 360 359 358 355 349 340 323 297 279 265 253 249 247 245 244 244 243 243 244 245 246 247 247 247 249 249 249 249 250 251 251 249 247 247 249 251 252 253 254 255 256 257 258 258 258 259 259 260 260 260 261 262 264 265 264 263 263 263 264 266 266 266 266 265 265 265 266 266 266 266 266 267 266 265 264 264 265 266
4 3 2 1 359 356 355 353 353 352 351 350 347 343 337 328 314 300 286 270 260 258 255 252 250 248 247 247 248 249 250 250 250 250 251 251 251 252 253 253 254 253 252 252 253 254 254 254 256 257 257 258 258 259 259 258 258 258 259 259 259 260 261 262 263 264 266 267 268 267 267 268 268 268 267 267 267 267 266 267 268 267 266 265 265 264 264
3 3 3 2 1 358 356 354 351 348 346 343 340 336 331 325 318 311 300 289 278 271 266 262 259 257 255 253 252 251 251 252 253 253 253 252 252 253 254 255 257 258 259 257 257 256 256 255 255 256 257 257 258 257 257 258 258 258 258 259 260 260 261 262 263 265 267 268 269 270 271 271 271 271 269 267 266 267 267 266 266 266 266 266 265 264 264
3 3 4 4 4 2 360 358 356 353 350 349 346 343 338 334 328 322 315 308 299 287 278 273 270 267 264 262 260 259 257 256 256 257 256 255 254 255 256 258 259 260 260 259 258 257 256 256 256 256 256 257 257 257 258 258 258 258 259 260 260 261 263 264 265 266 267 268 270 271 273 273 272 270 269 267 266 266 266 265 265 266 267 268 268 268 267
2 3 5 6 6 6 5 4 3 2 3 5 6 3 358 352 344 335 331 326 315 300 291 287 282 277 274 272 269 266 264 263 261 260 260 259 259 259 259 258 258 259 259 259 258 258 258 258 257 257 257 257 257 258 259 259 259 260 261 261 261 262 262 263 264 265 265 267 268 269 270 271 271 269 268 267 266 265 264 264 266 267 268 269 269 269 268
1 3 5 7 8 8 9 8 8 7 8 10 11 9 4 357 348 341 336 331 322 312 305 299 292 286 284 280 276 273 270 268 265 265 265 263 262 262 261 258 257 258 259 260 259 260 260 259 259 259 259 259 259 261 261 260 260 261 261 261 261 260 259 259 261 262 262 263 264 265 267 268 269 268 267 267 267 266 266 266 267 267 267 268 269 269 268
1 2 5 7 9 10 11 11 11 10 8 5 3 2 1 358 354 353 351 344 335 327 320 312 304 299 294 289 284 279 275 270 268 267 266 265 263 263 263 262 260 260 262 262 261 260 259 258 258 259 259 259 259 260 259 258 258 258 257 258 257 257 257 258 258 258 259 259 259 260 263 265 265 264 265 266 266 266 266 266 267 267 268 269 269 270 270
3 4 5 7 9 10 12 13 13 13 11 7 2 360 360 1 1 1 0 356 347 339 332 325 319 314 310 305 297 288 280 274 271 269 267 266 266 265 266 268 268 266 265 264 262 261 260 261 262 262 261 260 259 258 258 257 256 254 253 253 253 255 256 256 256 257 259 259 259 261 262 262 262 262 264 265 265 265 266 268 269 270 271 271 270 270 271
6 6 7 8 8 10 12 13 14 14 14 12 9 6 4 3 4 2 2 360 355 349 344 338 332 329 328 326 319 306 294 285 278 273 271 270 270 271 271 271 270 268 266 264 263 264 264 265 266 265 263 262 261 260 260 259 257 256 253 251 250 251 253 254 255 256 258 260 261 263 263 262 263 264 265 265 265 267 269 270 270 271 271 272 272 272 273
9 9 9 9 9 9 11 12 13 14 15 14 14 13 9 7 6 5 3 1 360 359 355 348 344 342 342 344 342 332 320 307 294 285 279 276 275 274 272 269 266 265 263 260 261 262 262 263 264 263 261 261 261 260 259 258 258 258 257 255 252 251 254 256 257 258 260 262 261 262 263 264 265 266 266 266 268 270 271 271 271 272 272 272 272 272 272
10 11 11 11 10 10 9 10 12 13 14 14 14 14 13 11 10 8 5 2 1 0 358 354 352 350 347 351 354 352 347 338 321 304 293 287 283 276 271 269 268 265 262 260 261 262 261 261 262 261 262 265 266 264 263 263 263 264 263 262 262 260 260 261 260 260 262 263 263 264 266 267 267 268 269 270 272 272 271 270 271 271 271 271 271 271 271
7 8 10 10 10 10 9 9 10 11 12 13 13 13 13 13 13 12 10 7 3 1 359 356 355 353 350 351 353 354 357 356 348 336 325 312 300 285 278 276 274 270 268 266 265 265 264 264 263 262 264 267 269 268 268 267 267 267 266 265 267 268 266 264 263 263 264 264 266 269 271 270 269 269 270 270 270 269 269 270 271 272 272 273 274 274 274
3 4 5 6 7 7 7 8 8 9 9 10 11 11 11 11 12 12 11 9 7 5 3 359 354 352 351 351 351 349 350 352 352 351 350 343 330 315 301 292 285 281 276 272 270 270 269 268 268 267 267 269 270 269 268 266 265 266 266 267 269 271 270 269 269 269 268 268 270 271 270 269 270 270 269 268 268 268 268 270 271 273 275 276 276 277 277
0 1 2 3 3 3 3 3 5 6 7 6 7 9 8 7 8 10 9 8 7 7 5 2 359 356 353 351 349 345 343 343 342 342 344 343 337 331 323 315 305 294 284 279 279 279 276 272 272 274 276 275 269 265 266 268 270 270 269 269 270 272 273 274 275 274 273 272 272 271 271 270 271 271 271 271 271 271 272 272 273 273 274 275 276 276 276
359 360 1 2 3 3 2 1 1 2 3 3 3 4 4 4 6 7 5 4 5 4 3 3 2 359 355 353 350 344 339 337 335 333 332 329 324 321 319 315 310 301 293 290 286 281 279 280 282 284 282 276 270 269 272 276 277 276 273 272 273 274 275 276 277 276 276 276 276 276 276 277 276 276 276 276 275 276 277 277 276 277 277 277 277 276 275
356 358 359 359 0 1 1 1 1 0 360 359 359 360 1 2 1 0 358 359 1 1 0 1 0 358 355 355 352 346 339 335 332 329 326 323 319 317 314 310 306 302 296 293 291 287 286 287 287 285 280 276 276 279 281 280 278 277 277 278 279 280 280 280 278 277 277 278 279 280 280 280 281 281 280 280 280 280 280 281 281 281 281 280 279 278 277
353 354 355 356 357 358 359 359 360 360 359 358 356 356 358 358 356 354 353 355 356 357 357 357 356 355 355 354 351 348 344 340 335 329 325 322 318 315 313 310 307 304 300 298 296 294 293 291 290 288 286 282 281 281 282 282 280 280 282 285 287 286 284 282 280 280 281 282 283 283 282 283 283 284 283 283 284 285 286 286 286 285 284 283 282 282 283
349 350 351 352 353 354 355 357 357 357 358 358 356 355 354 354 352 351 352 351 351 351 353 353 352 352 352 350 349 348 347 345 343 337 330 325 320 316 315 313 309 306 305 303 300 298 297 296 295 295 294 289 286 286 287 285 283 284 288 291 291 289 287 285 285 286 287 286 286 285 286 286 286 285 285 286 289 291 292 291 290 289 289 289 289 290 290
344 345 346 347 349 350 352 353 353 354 355 356 355 354 353 352 351 348 347 348 348 347 347 348 348 349 350 348 347 346 345 345 345 342 336 331 328 326 323 319 316 312 308 305 303 301 301 300 299 300 299 295 293 294 294 290 290 294 297 296 293 292 292 292 292 292 292 290 290 290 289 288 288 288 290 294 298 300 299 297 298 298 298 298 298 298 296
340 341 342 343 344 344 347 349 349 349 352 353 352 352 352 351 349 346 345 345 345 344 343 343 344 345 346 346 344 342 343 343 342 342 338 332 328 328 325 318 316 314 309 307 307 304 303 304 303 302 302 301 300 300 299 298 299 301 300 298 298 299 298 296 297 297 296 294 294 292 289 288 289 292 296 300 304 305 305 305 305 304 304 304 305 304 301
336 336 338 339 339 339 341 343 344 345 349 351 350 348 347 346 347 348 347 344 343 342 341 340 340 340 341 341 339 339 341 340 338 340 339 331 327 326 323 320 319 313 309 309 310 306 306 307 304 301 302 304 304 306 306 305 305 304 302 302 303 303 301 301 301 299 296 294 293 291 290 291 294 297 300 302 304 305 305 305 305 305 307 308 308 308 306
331 332 333 334 335 335 336 337 338 341 345 347 343 340 340 342 345 347 347 345 344 342 339 338 336 336 336 336 335 337 339 337 335 337 337 334 332 330 324 323 325 316 310 311 310 308 309 309 304 303 306 309 310 312 313 311 310 310 309 309 308 306 306 305 302 297 293 291 290 289 290 293 297 301 302 303 304 307 308 309 308 308 310 312 312 312 313
327 327 328 330 331 331 332 333 335 337 339 337 334 334 337 341 343 344 344 345 344 342 340 338 335 333 333 333 333 334 335 334 331 332 333 331 332 332 327 325 327 322 315 316 315 312 311 311 308 307 309 312 316 317 317 316 316 315 313 313 312 311 310 306 298 291 289 291 293 292 292 295 300 303 302 302 308 315 316 315 313 313 312 313 315 317 320
322 322 323 325 326 327 328 329 330 330 330 329 329 332 334 337 339 340 341 342 343 341 339 338 336 333 332 333 331 329 331 331 330 330 331 329 328 330 329 327 328 326 319 318 320 316 311 311 312 310 311 317 323 321 317 318 319 317 316 316 316 315 313 304 291 284 287 293 296 296 295 298 301 302 300 301 312 322 323 319 318 316 314 318 326 331 332
317 317 319 321 321 322 323 323 324 324 325 326 328 329 330 332 336 337 337 337 338 338 336 335 336 335 332 331 329 327 327 328 327 326 328 328 325 324 324 324 327 325 318 318 324 321 312 312 316 312 311 320 327 320 317 321 322 318 318 320 318 317 313 299 283 279 286 293 296 296 296 297 296 294 294 302 314 324 328 328 325 321 322 335 344 341 342
313 314 315 316 317 318 319 320 320 321 323 324 325 325 326 327 330 331 330 328 330 333 333 332 334 335 332 330 330 328 325 325 325 323 323 325 324 321 320 322 326 325 318 320 327 323 312 313 316 313 314 325 329 318 317 324 323 319 321 322 320 317 309 291 275 276 287 294 298 299 298 295 287 282 286 301 316 323 328 333 336 336 342 346 343 345 358
311 311 312 313 314 315 316 316 317 319 319 320 320 321 321 322 323 324 325 325 325 329 331 330 330 332 331 330 333 333 327 325 325 323 321 323 324 322 319 320 323 323 319 321 325 321 314 314 314 311 317 329 326 316 319 327 324 321 324 324 320 314 303 283 271 276 288 296 299 300 298 294 283 276 283 299 314 320 328 337 345 351 354 345 340 353 22
308 308 309 310 311 312 313 314 314 315 315 315 316 317 316 316 317 318 321 322 322 322 325 325 325 327 328 329 332 335 331 328 325 321 319 321 322 320 318 318 319 320 319 320 321 320 318 317 313 312 320 328 320 313 321 328 324 322 326 325 320 312 297 275 262 270 286 296 301 301 299 294 285 281 287 299 308 315 328 343 351 355 354 348 350 10 37
306 306 308 309 309 310 311 311 311 312 311 311 312 312 312 312 312 313 315 318 318 317 318 320 321 324 326 327 329 331 331 329 325 321 319 320 319 318 316 315 316 316 317 317 318 319 320 318 313 315 323 326 316 313 321 326 323 323 327 325 319 311 295 270 253 259 278 293 300 299 296 296 297 296 298 302 307 312 326 345 352 351 349 356 13 26 41
304 305 306 307 307 308 308 307 308 309 307 306 308 309 308 309 309 309 310 312 313 312 312 314 316 319 321 322 324 326 327 328 327 324 321 320 318 316 315 314 313 313 314 314 315 317 319 316 314 318 326 325 314 312 318 322 320 322 326 325 318 310 294 266 249 252 268 287 295 293 292 300 310 307 303 304 308 310 317 333 344 348 357 16 24 24 29
304 304 305 305 306 306 306 306 306 306 304 304 306 307 306 307 307 308 309 311 312 311 311 312 314 316 318 319 322 323 324 325 326 325 323 321 318 315 314 313 311 311 311 312 313 316 316 313 314 320 326 321 311 310 315 318 318 320 323 324 319 308 292 266 247 247 260 278 287 287 288 299 309 308 305 307 310 308 310 324 339 351 11 32 32 17 18
303 304 305 305 305 306 306 305 304 303 303 305 306 306 304 304 305 305 306 308 309 309 309 310 312 314 315 316 318 319 319 320 323 323 323 322 320 317 315 313 312 310 309 309 311 313 313 312 315 321 323 316 308 309 313 316 316 316 320 322 318 306 289 264 247 246 255 269 278 278 280 290 302 308 310 313 312 305 305 316 334 348 8 30 40 34 26
303 304 305 305 306 306 306 305 304 304 306 306 306 304 303 304 304 304 304 305 306 307 307 307 307 309 310 310 312 314 314 315 318 319 319 319 319 317 314 313 311 308 307 308 309 310 309 311 316 319 318 314 311 310 312 314 314 314 317 320 318 305 284 261 246 245 253 263 269 270 273 281 294 305 311 313 313 308 304 313 333 349 0 12 24 37 46
303 304 305 305 306 306 305 304 305 307 307 306 304 303 304 305 306 306 306 307 308 308 306 303 303 303 303 304 307 309 309 310 313 315 314 315 317 317 315 314 311 307 305 307 309 307 306 310 316 317 315 314 311 309 310 313 313 313 314 317 317 307 284 257 242 241 248 256 262 263 265 272 284 298 306 309 307 303 298 304 323 340 350 359 13 43 82
302 303 304 304 305 304 304 305 307 308 306 304 304 304 305 305 305 305 305 305 305 304 302 300 298 298 299 300 303 304 304 306 309 310 311 313 315 315 316 316 313 306 303 305 306 304 304 309 313 314 314 314 309 303 304 309 310 309 310 314 316 310 289 258 240 237 242 249 255 256 258 263 273 284 293 300 301 294 287 285 292 304 323 347 18 58 73
302 303 304 304 304 304 305 306 308 307 305 305 305 305 305 306 306 307 306 306 305 303 302 299 296 295 296 299 301 301 300 302 305 306 307 309 310 311 313 315 312 306 303 304 303 301 301 305 309 311 313 313 305 299 301 307 308 307 308 311 313 310 294 262 240 234 236 243 248 252 253 256 263 270 276 282 288 286 278 275 279 279 266 249 236 40 36
302 303 304 304 305 305 307 308 308 307 306 306 306 305 306 308 308 307 307 308 307 306 303 299 296 295 295 296 297 297 299 301 302 302 304 306 306 307 310 313 311 306 304 303 302 300 301 303 306 309 312 309 299 294 298 304 306 305 305 308 310 309 300 273 246 234 233 237 242 246 249 252 255 259 262 266 271 274 270 267 266 261 245 227 210 191 25
302 303 304 304 304 306 307 307 307 306 306 306 306 306 307 308 308 307 308 309 310 309 304 299 297 297 297 296 295 295 297 299 299 299 300 303 304 305 308 311 310 307 304 302 299 298 300 301 304 308 311 305 295 292 295 300 302 302 303 304 306 307 303 287 257 239 233 234 237 241 245 248 249 250 252 252 255 262 264 260 255 248 235 220 211 209 208
301 302 303 303 303 304 304 304 304 305 306 307 307 308 308 309 309 309 310 310 311 311 307 303 300 301 301 302 301 301 300 298 296 295 297 299 300 302 305 308 308 307 305 301 296 294 295 297 301 307 308 302 296 295 298 300 300 300 301 302 303 303 301 293 271 247 236 234 236 238 241 243 244 244 245 245 245 250 255 255 250 243 232 221 214 214 211
Height
5641 5639 5638 5637 5635 5634 5633 5633 5633 5632 5632 5633 5634 5635 5636 5637 5638 5638 5639 5640 5640 5640 5640 5642 5643 5644 5647 5649 5651 5653 5654 5656 5658 5660 5660 5662 5662 5663 5665 5666 5668 5669 5669 5670 5671 5672 5673 5674 5675 5674 5672 5672 5675 5677 5678 5678 5679 5681 5681 5683 5687 5688 5689 5691 5693 5695 5696 5697 5698 5700 5700 5699 5699 5701 5702 5702 5701 5701 5701 5702 5702 5703 5703 5703 5704 5705 5705
5638 5636 5634 5633 5631 5630 5629 5629 5629 5628 5628 5628 5629 5630 5631 5632 5633 5634 5634 5635 5636 5637 5637 5638 5639 5640 5643 5644 5646 5648 5649 5651 5653 5654 5655 5658 5659 5660 5661 5662 5663 5663 5664 5665 5667 5668 5669 5670 5672 5672 5668 5669 5673 5674 5673 5673 5676 5679 5679 5681 5683 5685 5686 5688 5689 5691 5693 5694 5695 5696 5696 5695 5695 5696 5696 5696 5698 5698 5699 5699 5700 5700 5700 5700 5702 5701 5701
5634 5632 5630 5628 5627 5626 5625 5624 5624 5624 5624 5623 5624 5625 5626 5627 5628 5629 5629 5631 5632 5633 5634 5634 5635 5636 5638 5639 5641 5642 5644 5646 5648 5649 5651 5653 5654 5655 5656 5656 5657 5658 5659 5660 5662 5663 5665 5667 5669 5669 5667 5666 5668 5670 5669 5670 5674 5676 5676 5677 5680 5681 5682 5683 5685 5687 5689 5691 5690 5690 5691 5692 5692 5692 5691 5692 5693 5694 5695 5696 5697 5697 5696 5697 5698 5697 5697
5630 5628 5626 5624 5622 5620 5619 5619 5619 5619 5619 5619 5619 5620 5621 5622 5622 5624 5625 5626 5628 5629 5629 5630 5631 5632 5634 5635 5636 5638 5640 5642 5644 5646 5647 5649 5649 5651 5651 5651 5653 5654 5654 5656 5658 5659 5661 5663 5664 5665 5665 5663 5664 5665 5666 5668 5670 5671 5671 5673 5676 5678 5679 5680 5681 5683 5685 5687 5687 5687 5688 5689 5689 5689 5689 5689 5689 5689 5691 5692 5693 5693 5693 5694 5694 5693 5694
5627 5624 5622 5620 5618 5616 5614 5613 5613 5614 5614 5614 5615 5616 5616 5617 5618 5620 5621 5623 5624 5624 5625 5626 5627 5628 5629 5630 5631 5634 5636 5638 5640 5642 5643 5644 5645 5646 5647 5647 5649 5650 5650 5652 5654 5655 5657 5658 5659 5661 5662 5661 5660 5660 5662 5664 5665 5666 5667 5670 5672 5674 5676 5677 5678 5679 5680 5682 5683 5683 5684 5685 5686 5686 5686 5686 5686 5686 5686 5687 5688 5688 5689 5691 5690 5689 5690
5624 5622 5619 5617 5614 5612 5609 5608 5607 5607 5608 5609 5610 5611 5611 5612 5615 5616 5617 5618 5620 5620 5621 5622 5623 5624 5625 5626 5628 5630 5631 5633 5636 5637 5638 5639 5640 5640 5641 5643 5644 5645 5645 5646 5649 5651 5652 5653 5655 5657 5658 5657 5657 5656 5656 5658 5659 5660 5664 5666 5668 5669 5670 5672 5673 5674 5675 5676 5676 5678 5679 5680 5681 5682 5682 5682 5683 5683 5682 5683 5683 5683 5683 5686 5685 5684 5686
5622 5620 5617 5615 5612 5609 5606 5604 5602 5602 5602 5604 5605 5606 5607 5608 5610 5611 5612 5614 5615 5616 5617 5618 5619 5621 5622 5623 5625 5626 5627 5629 5631 5632 5632 5633 5634 5635 5636 5638 5639 5638 5638 5641 5644 5645 5646 5647 5650 5653 5654 5653 5654 5653 5653 5654 5654 5656 5659 5660 5663 5665 5665 5666 5668 5669 5670 5671 5671 5673 5674 5675 5676 5677 5678 5678 5678 5678 5678 5678 5678 5677 5678 5680 5679 5679 5680
5621 5618 5616 5613 5610 5607 5604 5602 5599 5597 5597 5598 5600 5601 5602 5604 5606 5607 5608 5609 5611 5612 5613 5614 5615 5616 5618 5619 5620 5620 5622 5624 5625 5627 5628 5628 5629 5630 5631 5633 5634 5633 5635 5639 5641 5640 5641 5643 5645 5649 5650 5650 5650 5650 5650 5650 5650 5652 5653 5653 5657 5660 5659 5660 5662 5664 5665 5666 5666 5667 5667 5668 5670 5672 5672 5672 5673 5673 5674 5673 5673 5673 5673 5674 5674 5673 5672
5619 5617 5614 5611 5608 5606 5603 5600 5597 5595 5594 5594 5595 5596 5598 5599 5601 5603 5604 5604 5605 5606 5607 5609 5611 5612 5613 5614 5616 5617 5617 5617 5620 5623 5623 5622 5621 5623 5625 5627 5628 5629 5633 5636 5636 5635 5637 5639 5641 5645 5647 5647 5647 5647 5647 5647 5647 5647 5648 5648 5651 5653 5653 5655 5657 5658 5660 5661 5661 5661 5661 5663 5665 5666 5665 5667 5668 5669 5670 5669 5667 5666 5667 5668 5668 5666 5664
5618 5615 5613 5610 5607 5605 5602 5599 5597 5594 5593 5592 5592 5593 5594 5595 5597 5598 5599 5599 5600 5601 5603 5606 5607 5607 5609 5610 5612 5612 5611 5613 5617 5619 5617 5616 5616 5619 5622 5623 5624 5627 5630 5632 5631 5632 5634 5636 5638 5641 5643 5643 5643 5643 5643 5644 5644 5644 5643 5644 5646 5647 5648 5650 5651 5653 5654 5654 5654 5655 5656 5659 5660 5658 5658 5661 5662 5663 5664 5663 5660 5659 5660 5662 5661 5659 5659
5617 5614 5612 5609 5606 5604 5601 5599 5596 5594 5592 5591 5591 5591 5591 5592 5593 5593 5594 5596 5597 5598 5600 5602 5602 5604 5606 5606 5607 5607 5608 5610 5614 5614 5613 5614 5615 5617 5619 5621 5623 5625 5627 5628 5629 5630 5632 5633 5635 5636 5637 5637 5638 5638 5638 5639 5641 5640 5640 5640 5642 5642 5643 5644 5645 5647 5647 5646 5648 5649 5650 5652 5653 5652 5653 5655 5655 5656 5658 5656 5652 5653 5656 5656 5653 5653 5654
5616 5614 5611 5608 5606 5603 5601 5599 5596 5594 5593 5591 5590 5590 5590 5590 5590 5590 5592 5594 5595 5596 5598 5599 5600 5602 5603 5603 5604 5604 5605 5607 5609 5610 5611 5612 5613 5614 5615 5617 5619 5621 5623 5625 5626 5626 5627 5628 5629 5629 5630 5632 5632 5633 5633 5634 5636 5636 5636 5636 5636 5637 5638 5639 5640 5640 5639 5638 5640 5642 5644 5646 5646 5645 5648 5649 5647 5648 5651 5649 5646 5648 5651 5650 5647 5647 5648
5616 5613 5611 5608 5606 5603 5601 5599 5597 5595 5593 5591 5590 5589 5589 5588 5588 5589 5590 5591 5592 5593 5595 5596 5597 5598 5599 5599 5600 5600 5601 5603 5605 5606 5607 5608 5609 5609 5609 5611 5614 5616 5618 5619 5620 5620 5621 5621 5622 5623 5624 5626 5627 5628 5628 5629 5631 5631 5631 5631 5632 5631 5632 5634 5634 5632 5631 5632 5633 5635 5637 5638 5638 5638 5640 5642 5641 5641 5643 5642 5639 5642 5645 5644 5642 5641 5640
5616 5613 5611 5608 5606 5603 5601 5599 5597 5595 5593 5592 5590 5589 5588 5588 5587 5587 5588 5589 5590 5591 5591 5592 5593 5594 5594 5594 5595 5596 5598 5600 5601 5602 5603 5603 5604 5604 5603 5605 5608 5610 5612 5614 5614 5615 5615 5616 5617 5618 5619 5620 5621 5622 5623 5624 5625 5626 5626 5627 5627 5626 5626 5627 5626 5625 5625 5626 5627 5628 5630 5630 5630 5632 5633 5635 5635 5634 5635 5634 5632 5635 5636 5635 5634 5635 5634
5616 5613 5611 5608 5606 5603 5601 5599 5597 5595 5593 5592 5590 5589 5588 5587 5586 5586 5586 5587 5588 5588 5588 5589 5590 5590 5591 5591 5592 5594 5595 5595 5597 5598 5598 5599 5600 5599 5599 5601 5603 5605 5607 5609 5609 5609 5610 5611 5612 5613 5614 5615 5616 5616 5617 5618 5619 5619 5620 5621 5621 5621 5620 5620 5620 5619 5619 5621 5621 5621 5623 5623 5624 5625 5627 5629 5628 5627 5627 5626 5625 5626 5627 5625 5626 5628 5628
5616 5613 5611 5608 5605 5603 5600 5598 5596 5594 5592 5591 5590 5588 5587 5586 5585 5585 5585 5585 5585 5586 5586 5586 5587 5587 5588 5588 5589 5590 5590 5591 5593 5593 5593 5594 5595 5594 5595 5597 5598 5600 5601 5602 5603 5604 5604 5606 5606 5607 5608 5609 5610 5610 5611 5612 5613 5613 5614 5615 5615 5615 5614 5614 5616 5615 5614 5615 5615 5615 5616 5617 5617 5619 5620 5622 5620 5619 5620 5619 5616 5617 5619 5618 5619 5620 5621
5616 5614 5611 5608 5605 5603 5600 5598 5596 5593 5591 5590 5588 5587 5586 5585 5584 5584 5583 5584 5584 5584 5583 5584 5584 5584 5585 5585 5586 5586 5586 5587 5588 5587 5587 5589 5590 5590 5592 5593 5594 5595 5596 5596 5597 5598 5599 5600 5600 5601 5603 5603 5603 5604 5605 5606 5606 5607 5608 5609 5609 5609 5609 5610 5610 5610 5609 5610 5610 5610 5609 5610 5611 5612 5612 5613 5613 5613 5612 5610 5609 5611 5611 5610 5611 5613 5614
5616 5614 5611 5608 5605 5603 5600 5598 5595 5593 5591 5590 5588 5587 5586 5585 5584 5583 5583 5583 5583 5582 5582 5582 5582 5582 5582 5582 5582 5582 5583 5583 5583 5582 5582 5584 5585 5586 5587 5588 5589 5590 5590 5591 5592 5592 5593 5594 5595 5596 5597 5597 5597 5598 5600 5600 5600 5601 5602 5603 5603 5604 5604 5604 5604 5604 5605 5605 5605 5604 5603 5603 5604 5604 5604 5604 5605 5606 5604 5603 5603 5605 5604 5604 5605 5605 5606
5616 5614 5611 5609 5606 5603 5600 5598 5596 5594 5592 5590 5589 5588 5587 5585 5584 5583 5582 5582 5581 5581 5580 5580 5580 5580 5580 5580 5579 5579 5579 5579 5578 5578 5578 5579 5580 5581 5581 5582 5584 5584 5585 5586 5587 5588 5589 5589 5589 5591 5593 5592 5592 5594 5595 5595 5595 5596 5596 5597 5598 5599 5599 5599 5599 5600 5600 5600 5600 5599 5598 5597 5598 5597 5596 5597 5598 5598 5597 5597 5597 5598 5597 5597 5598 5597 5596
5616 5614 5611 5609 5606 5604 5601 5599 5596 5594 5592 5591 5589 5588 5587 5585 5584 5583 5582 5581 5580 5580 5579 5579 5578 5578 5577 5577 5576 5576 5576 5575 5574 5574 5574 5574 5575 5575 5575 5577 5579 5580 5580 5581 5581 5582 5583 5582 5583 5587 5587 5586 5587 5589 5589 5590 5590 5590 5591 5591 5592 5592 5593 5594 5594 5594 5595 5595 5594 5594 5593 5592 5591 5590 5590 5592 5592 5590 5589 5590 5590 5590 5590 5591 5591 5589 5588
5616 5614 5612 5609 5607 5604 5602 5599 5597 5595 5593 5591 5589 5588 5587 5585 5584 5583 5582 5581 5580 5579 5578 5578 5577 5576 5575 5574 5573 5572 5572 5571 5571 5571 5570 5570 5571 5572 5572 5573 5575 5576 5576 5576 5576 5577 5578 5577 5579 5582 5582 5581 5582 5583 5584 5585 5585 5585 5586 5587 5586 5586 5588 5588 5588 5588 5589 5589 5588 5589 5589 5586 5584 5585 5586 5585 5584 5582 5583 5583 5583 5583 5583 5584 5584 5583 5582
5616 5614 5612 5610 5607 5605 5603 5600 5598 5596 5594 5592 5590 5588 5587 5585 5584 5583 5581 5580 5579 5578 5577 5577 5576 5575 5574 5572 5571 5569 5568 5568 5567 5567 5567 5566 5567 5569 5569 5570 5571 5571 5572 5572 5572 5573 5574 5573 5575 5578 5577 5576 5578 5578 5579 5580 5579 5579 5581 5582 5582 5581 5581 5583 5583 5582 5584 5585 5583 5583 5583 5580 5578 5579 5580 5578 5576 5577 5578 5578 5577 5577 5577 5577 5577 5576 5576
5617 5615 5612 5610 5608 5605 5603 5601 5599 5596 5595 5592 5590 5589 5587 5585 5584 5583 5582 5580 5579 5578 5577 5576 5575 5574 5572 5571 5570 5568 5567 5566 5565 5565 5564 5564 5565 5566 5566 5566 5567 5567 5568 5568 5568 5570 5570 5570 5572 5573 5572 5572 5574 5574 5575 5575 5574 5574 5575 5576 5577 5576 5577 5579 5579 5577 5578 5579 5577 5576 5577 5576 5574 5573 5572 5571 5572 5573 5572 5571 5570 5571 5571 5570 5569 5568 5567
5617 5615 5613 5610 5608 5606 5604 5601 5599 5597 5595 5593 5591 5589 5588 5586 5584 5583 5581 5580 5579 5578 5577 5576 5574 5573 5572 5570 5569 5567 5566 5565 5564 5563 5563 5562 5563 5563 5563 5563 5564 5564 5565 5565 5566 5567 5567 5567 5568 5569 5568 5569 5570 5570 5570 5570 5571 5571 5571 5570 5571 5572 5574 5574 5574 5573 5573 5572 5569 5570 5573 5572 5569 5567 5566 5567 5568 5567 5565 5564 5563 5562 5562 5560 5559 5559 5559
5618 5616 5613 5611 5609 5607 5604 5602 5600 5598 5596 5594 5592 5590 5588 5586 5585 5583 5582 5580 5579 5578 5577 5575 5574 5573 5571 5570 5569 5567 5566 5565 5564 5563 5562 5562 5562 5562 5561 5561 5562 5562 5563 5563 5563 5564 5564 5564 5565 5565 5565 5566 5567 5566 5567 5567 5567 5568 5567 5566 5566 5567 5568 5568 5568 5568 5568 5566 5565 5567 5568 5566 5563 5563 5562 5562 5561 5559 5557 5556 5555 5554 5554 5553 5552 5552 5551
5618 5616 5614 5611 5609 5607 5605 5603 5600 5598 5596 5594 5592 5591 5589 5587 5585 5584 5582 5581 5579 5578 5576 5575 5574 5572 5571 5570 5569 5567 5566 5565 5564 5563 5562 5561 5561 5561 5560 5560 5560 5561 5561 5561 5561 5561 5562 5562 5562 5562 5562 5563 5564 5563 5563 5563 5563 5563 5563 5562 5562 5562 5562 5563 5563 5564 5563 5561 5561 5562 5562 5559 5558 5557 5556 5555 5554 5553 5551 5550 5549 5548 5547 5546 5545 5545 5543
5618 5616 5614 5612 5609 5607 5605 5603 5601 5599 5596 5595 5593 5591 5589 5587 5586 5584 5582 5581 5579 5578 5576 5575 5573 5572 5571 5569 5568 5567 5566 5565 5564 5563 5562 5562 5561 5560 5560 5560 5560 5560 5560 5560 5560 5560 5560 5559 5560 5560 5560 5561 5561 5560 5559 5559 5560 5560 5559 5558 5559 5559 5558 5559 5559 5558 5557 5556 5556 5555 5555 5554 5553 5551 5550 5548 5547 5546 5546 5545 5544 5542 5541 5540 5539 5537 5536
5618 5616 5614 5612 5610 5608 5605 5603 5601 5599 5597 5595 5593 5591 5589 5587 5586 5584 5582 5581 5579 5578 5576 5575 5573 5572 5570 5569 5568 5567 5566 5565 5564 5563 5562 5561 5561 5560 5560 5559 5559 5559 5559 5559 5559 5558 5558 5558 5558 5558 5559 5558 5557 5557 5557 5557 5556 5556 5555 5555 5556 5556 5555 5555 5554 5553 5552 5551 5550 5549 5548 5547 5546 5545 5543 5542 5541 5540 5539 5538 5536 5535 5534 5533 5531 5529 5528
5617 5616 5614 5612 5610 5608 5606 5603 5601 5599 5597 5595 5593 5591 5589 5587 5585 5584 5583 5581 5579 5578 5576 5574 5573 5571 5570 5568 5567 5566 5565 5564 5563 5562 5561 5561 5560 5559 5559 5559 5558 5558 5558 5557 5557 5557 5557 5556 5556 5556 5556 5556 5555 5554 5554 5554 5553 5551 5551 5551 5552 5552 5551 5550 5549 5548 5547 5546 5545 5544 5543 5541 5540 5538 5536 5535 5534 5534 5533 5531 5529 5528 5527 5525 5523 5521 5521
5617 5615 5613 5611 5609 5607 5605 5603 5601 5599 5597 5596 5594 5591 5589 5587 5586 5584 5582 5581 5579 5577 5576 5574 5573 5571 5570 5568 5567 5565 5564 5563 5562 5561 5560 5560 5559 5558 5558 5558 5557 5557 5556 5556 5555 5555 5555 5554 5554 5554 5554 5553 5552 5552 5551 5550 5549 5547 5547 5548 5548 5547 5546 5545 5544 5543 5542 5541 5540 5539 5537 5536 5534 5532 5530 5528 5528 5527 5526 5525 5523 5522 5520 5519 5517 5516 5515
5616 5615 5613 5611 5609 5607 5605 5603 5601 5599 5597 5595 5593 5591 5589 5588 5586 5584 5582 5580 5579 5577 5575 5574 5572 5571 5569 5568 5566 5565 5564 5562 5561 5560 5559 5559 5558 5557 5557 5556 5556 5555 5555 5554 5554 5553 5552 5552 5551 5551 5551 5551 5549 5549 5549 5547 5545 5544 5544 5545 5544 5543 5542 5540 5539 5538 5538 5537 5535 5534 5532 5531 5529 5527 5525 5524 5523 5522 5521 5520 5518 5517 5516 5514 5513 5512 5511
5616 5614 5612 5610 5608 5606 5604 5602 5600 5599 5596 5594 5593 5591 5589 5587 5585 5583 5581 5580 5578 5576 5575 5573 5571 5570 5569 5567 5566 5564 5563 5562 5560 5559 5558 5557 5556 5556 5555 5554 5554 5553 5553 5552 5551 5551 5550 5549 5549 5548 5548 5548 5547 5546 5546 5544 5543 5542 5541 5541 5540 5539 5538 5536 5535 5534 5533 5531 5530 5529 5528 5526 5524 5523 5521 5520 5520 5519 5518 5516 5515 5514 5513 5511 5510 5509 5507
5615 5613 5611 5609 5607 5605 5604 5602 5600 5598 5596 5594 5592 5590 5588 5586 5584 5583 5581 5579 5577 5575 5574 5572 5570 5569 5568 5566 5565 5563 5562 5561 5560 5559 5557 5556 5555 5554 5554 5553 5552 5551 5550 5550 5549 5548 5548 5547 5546 5546 5545 5545 5544 5543 5542 5541 5540 5539 5538 5537 5536 5535 5534 5532 5531 5530 5528 5527 5526 5525 5524 5522 5521 5520 5519 5518 5517 5516 5515 5514 5513 5512 5510 5509 5508 5506 5504
5613 5612 5610 5608 5606 5604 5602 5601 5599 5597 5595 5593 5591 5589 5587 5586 5584 5582 5580 5578 5576 5575 5573 5571 5570 5568 5567 5565 5564 5562 5561 5560 5559 5558 5557 5555 5554 5553 5552 5551 5551 5550 5548 5548 5547 5546 5546 5545 5544 5543 5543 5542 5542 5541 5539 5538 5538 5537 5535 5534 5533 5531 5530 5528 5527 5526 5524 5523 5522 5522 5521 5520 5519 5518 5518 5517 5516 5514 5513 5512 5511 5510 5508 5507 5505 5504 5502
5612 5610 5608 5607 5605 5603 5601 5599 5597 5596 5593 5592 5590 5589 5587 5585 5583 5581 5579 5577 5576 5574 5572 5570 5569 5567 5566 5564 5563 5561 5560 5559 5557 5556 5555 5554 5553 5552 5550 5549 5549 5548 5547 5546 5545 5544 5543 5543 5541 5540 5540 5540 5539 5538 5537 5536 5534 5533 5532 5531 5530 5528 5527 5525 5524 5522 5521 5521 5520 5520 5519 5518 5517 5517 5516 5515 5514 5513 5512 5511 5509 5508 5507 5505 5504 5502 5501
5609 5608 5606 5605 5603 5602 5600 5598 5596 5594 5592 5591 5590 5588 5586 5583 5581 5579 5578 5576 5574 5572 5571 5569 5567 5566 5564 5563 5561 5560 5559 5558 5556 5555 5554 5552 5551 5550 5549 5548 5547 5546 5545 5544 5543 5541 5541 5540 5539 5538 5537 5537 5536 5535 5534 5533 5532 5531 5529 5528 5527 5525 5524 5523 5521 5520 5519 5519 5519 5518 5517 5516 5516 5515 5514 5514 5513 5512 5510 5509 5508 5507 5505 5504 5503 5502 5500
5606 5605 5604 5602 5601 5599 5598 5596 5594 5593 5591 5590 5588 5586 5584 5582 5580 5578 5576 5574 5573 5571 5569 5568 5566 5564 5563 5561 5560 5558 5557 5556 5555 5553 5552 5551 5549 5548 5547 5546 5545 5544 5543 5542 5541 5540 5538 5538 5537 5536 5535 5535 5534 5533 5531 5531 5530 5528 5527 5525 5524 5522 5521 5520 5519 5518 5518 5517 5517 5517 5516 5515 5514 5514 5513 5513 5512 5511 5510 5508 5507 5506 5505 5504 5502 5501 5499
5604 5602 5601 5600 5598 5597 5596 5594 5592 5591 5589 5588 5586 5584 5581 5580 5578 5576 5575 5573 5572 5570 5568 5566 5565 5563 5561 5560 5559 5557 5555 5554 5553 5552 5551 5550 5548 5547 5546 5545 5544 5543 5541 5540 5539 5538 5536 5535 5535 5534 5533 5533 5532 5530 5529 5528 5527 5526 5524 5523 5521 5520 5519 5518 5517 5516 5516 5516 5515 5515 5514 5514 5513 5513 5512 5512 5511 5510 5509 5508 5506 5505 5504 5503 5502 5501 5499
5601 5599 5597 5596 5595 5594 5593 5591 5589 5588 5586 5584 5583 5581 5579 5577 5576 5575 5574 5572 5571 5569 5567 5565 5563 5562 5560 5558 5557 5556 5554 5552 5551 5550 5549 5548 5547 5545 5544 5543 5542 5541 5539 5538 5538 5536 5534 5533 5532 5531 5530 5530 5530 5528 5526 5526 5525 5523 5522 5520 5518 5517 5516 5515 5515 5515 5515 5514 5514 5514 5513 5512 5512 5512 5511 5511 5510 5509 5508 5507 5506 5505 5504 5502 5502 5501 5500
5598 5596 5594 5593 5592 5590 5589 5588 5586 5584 5583 5581 5580 5578 5576 5574 5573 5573 5571 5569 5567 5566 5565 5563 5561 5560 5558 5556 5555 5554 5551 5550 5549 5548 5546 5546 5545 5543 5541 5540 5540 5539 5537 5536 5536 5535 5533 5531 5530 5529 5528 5528 5527 5525 5524 5523 5522 5521 5520 5518 5516 5514 5514 5513 5513 5513 5513 5513 5513 5512 5512 5511 5511 5511 5510 5510 5509 5509 5508 5506 5505 5504 5503 5502 5502 5501 5500
5594 5592 5591 5589 5588 5587 5585 5584 5583 5582 5580 5578 5576 5575 5573 5571 5570 5569 5569 5567 5564 5563 5562 5561 5559 5558 5556 5554 5553 5552 5550 5548 5547 5545 5544 5543 5543 5541 5539 5538 5537 5536 5535 5533 5533 5532 5531 5530 5528 5527 5526 5525 5524 5522 5522 5521 5520 5518 5517 5516 5514 5512 5512 5511 5512 5512 5512 5512 5511 5511 5510 5510 5510 5509 5509 5509 5508 5508 5507 5506 5505 5504 5503 5503 5502 5501 5500
5590 5589 5587 5586 5584 5583 5581 5580 5579 5578 5576 5574 5573 5571 5570 5568 5567 5566 5565 5564 5562 5560 5559 5558 5557 5555 5553 5551 5550 5549 5548 5547 5545 5543 5542 5541 5540 5539 5538 5536 5535 5534 5533 5531 5530 5529 5528 5527 5526 5525 5524 5523 5521 5520 5519 5519 5517 5516 5515 5513 5511 5510 5510 5510 5510 5510 5510 5510 5510 5510 5509 5509 5509 5508 5508 5508 5508 5507 5506 5506 5505 5504 5504 5503 5502 5501 5500
5587 5585 5584 5582 5581 5579 5578 5576 5575 5574 5572 5570 5569 5568 5566 5565 5563 5561 5561 5561 5560 5558 5556 5555 5554 5553 5552 5550 5548 5547 5545 5544 5543 5541 5539 5538 5537 5536 5535 5534 5532 5531 5530 5529 5528 5527 5526 5525 5523 5523 5522 5521 5519 5518 5517 5516 5515 5514 5513 5511 5510 5508 5508 5508 5508 5508 5509 5509 5509 5509 5509 5508 5508 5508 5507 5507 5507 5506 5506 5505 5505 5505 5504 5503 5502 5501 5501
5582 5581 5580 5578 5576 5575 5574 5572 5571 5570 5568 5566 5565 5564 5562 5561 5559 5557 5556 5556 5556 5554 5552 5551 5550 5549 5548 5547 5546 5544 5542 5541 5540 5538 5537 5535 5534 5533 5532 5531 5530 5529 5527 5526 5525 5524 5523 5522 5521 5521 5520 5519 5517 5516 5515 5514 5512 5511 5511 5509 5508 5506 5506 5506 5506 5507 5507 5507 5508 5508 5508 5508 5507 5507 5507 5506 5506 5506 5505 5505 5505 5504 5504 5503 5503 5502 5502
5578 5577 5575 5574 5572 5571 5570 5568 5566 5565 5564 5563 5561 5560 5558 5556 5555 5554 5552 5551 5551 5550 5549 5547 5546 5545 5544 5542 5542 5541 5539 5538 5537 5536 5534 5533 5532 5530 5529 5528 5527 5526 5525 5524 5523 5522 5521 5519 5518 5518 5517 5516 5515 5514 5513 5512 5510 5509 5508 5507 5506 5505 5504 5504 5504 5505 5505 5506 5506 5507 5507 5507 5507 5506 5506 5506 5505 5505 5505 5505 5505 5504 5504 5504 5503 5503 5503
5573 5572 5571 5569 5568 5567 5565 5563 5562 5561 5560 5559 5557 5555 5554 5552 5551 5550 5548 5547 5547 5547 5546 5544 5543 5542 5540 5539 5538 5538 5536 5535 5534 5533 5531 5530 5529 5528 5526 5525 5524 5522 5521 5521 5520 5519 5518 5517 5516 5515 5514 5513 5512 5511 5510 5509 5508 5507 5506 5505 5504 5503 5502 5502 5503 5503 5503 5504 5505 5505 5506 5506 5506 5505 5505 5505 5505 5505 5505 5504 5504 5504 5504 5504 5503 5503 5503
5569 5567 5566 5565 5563 5562 5561 5559 5558 5557 5556 5554 5553 5551 5550 5548 5547 5545 5544 5543 5542 5543 5542 5541 5539 5538 5537 5536 5535 5534 5533 5531 5531 5530 5528 5527 5526 5525 5524 5523 5521 5519 5518 5517 5517 5515 5514 5514 5514 5513 5511 5510 5509 5508 5507 5506 5506 5505 5503 5503 5502 5501 5501 5500 5501 5501 5502 5502 5503 5504 5504 5504 5505 5505 5504 5504 5504 5504 5504 5504 5504 5504 5504 5504 5504 5503 5503
5564 5563 5562 5560 5559 5558 5557 5555 5554 5553 5552 5550 5548 5547 5546 5545 5543 5542 5541 5539 5539 5539 5538 5537 5536 5534 5533 5532 5532 5531 5529 5528 5527 5526 5525 5524 5522 5521 5520 5520 5519 5516 5515 5514 5514 5512 5511 5511 5511 5510 5509 5508 5507 5505 5504 5504 5503 5503 5501 5501 5500 5499 5499 5498 5499 5499 5500 5501 5501 5502 5502 5503 5503 5504 5504 5504 5504 5504 5504 5504 5504 5504 5504 5504 5504 5504 5503
5559 5558 5557 5556 5554 5553 5552 5551 5550 5549 5548 5546 5545 5543 5542 5541 5540 5538 5537 5536 5535 5535 5534 5533 5532 5530 5529 5528 5528 5527 5526 5525 5524 5523 5521 5520 5519 5518 5517 5517 5516 5514 5512 5511 5510 5509 5508 5508 5508 5507 5506 5505 5504 5502 5501 5501 5501 5500 5499 5499 5498 5497 5496 5496 5497 5497 5498 5499 5500 5500 5501 5501 5502 5502 5502 5503 5503 5503 5503 5503 5503 5503 5504 5504 5504 5504 5503
5554 5553 5552 5551 5550 5549 5548 5547 5546 5545 5544 5542 5541 5540 5538 5537 5536 5534 5533 5531 5531 5531 5530 5528 5527 5526 5525 5525 5524 5523 5522 5521 5520 5519 5518 5517 5515 5514 5514 5514 5513 5511 5509 5508 5507 5505 5504 5504 5504 5504 5504 5503 5501 5500 5499 5498 5498 5497 5497 5496 5496 5495 5494 5494 5494 5495 5496 5496 5497 5498 5499 5500 5500 5501 5501 5501 5502 5502 5502 5502 5502 5503 5503 5503 5504 5504 5504
5549 5548 5548 5547 5546 5545 5544 5543 5542 5541 5540 5539 5537 5536 5535 5534 5533 5531 5529 5528 5527 5527 5526 5524 5522 5521 5520 5520 5520 5520 5519 5518 5517 5515 5514 5513 5511 5510 5510 5510 5509 5508 5507 5505 5504 5502 5501 5500 5500 5500 5500 5499 5498 5497 5497 5496 5496 5495 5494 5494 5493 5493 5492 5492 5492 5492 5493 5494 5495 5496 5497 5498 5499 5499 5500 5500 5500 5501 5501 5501 5502 5502 5502 5503 5503 5503 5503
5546 5544 5544 5543 5542 5542 5541 5539 5538 5537 5536 5535 5534 5532 5531 5530 5529 5528 5526 5524 5523 5523 5521 5520 5518 5516 5515 5515 5515 5515 5515 5514 5513 5511 5511 5510 5508 5507 5506 5505 5505 5504 5503 5502 5501 5500 5498 5497 5497 5497 5497 5496 5495 5494 5494 5493 5493 5492 5492 5491 5491 5490 5490 5490 5490 5490 5490 5491 5492 5493 5494 5496 5496 5497 5498 5498 5499 5499 5500 5500 5501 5501 5501 5502 5502 5503 5503